Time,TemperatureF,DewpointF,PressureIn,WindDirection,WindDirectionDegrees,WindSpeedMPH,WindSpeedGustMPH,Humidity,HourlyPrecipIn,Conditions,Clouds,dailyrainin,SolarRadiationWatts/m^2,SoftwareType,DateUTC
2013-05-01 00:01:00,26.9,25.1,30.10,NE,34,0.0,0.0,93,0.00,,---,0.00,0.00,VWS V14.01,2013-05-01 06:01:00,
2013-05-01 00:06:00,26.8,25.0,30.10,NE,34,0.0,0.0,93,0.00,,---,0.00,0.00,VWS V14.01,2013-05-01 06:06:00,
2013-05-01 00:11:00,26.7,25.0,30.11,NE,34,0.0,0.0,93,0.00,,---,0.00,0.00,VWS V14.01,2013-05-01 06:11:00,
2013-05-01 00:16:00,26.6,24.9,30.12,NE,34,0.0,0.0,93,0.00,,---,0.00,0.00,VWS V14.01,2013-05-01 06:16:00,
2013-05-01 00:21:00,26.6,24.9,30.12,NE,34,0.0,0.0,93,0.00,,---,0.00,0.00,VWS V14.01,2013-05-01 06:21:00,
2013-05-01 00:26:00,26.5,24.8,30.12,NE,34,0.0,0.0,93,0.00,,---,0.00,0.00,VWS V14.01,2013-05-01 06:26:00,
2013-05-01 00:31:00,26.5,24.8,30.13,NE,34,0.0,0.0,93,0.00,,---,0.00,0.00,VWS V14.01,2013-05-01 06:31:00,
2013-05-01 00:36:00,26.5,24.8,30.14,NE,34,0.0,0.0,93,0.00,,---,0.00,0.00,VWS V14.01,2013-05-01 06:36:00,
2013-05-01 00:41:00,26.4,24.6,30.15,NE,34,0.0,0.0,93,0.00,,---,0.00,0.00,VWS V14.01,2013-05-01 06:41:00,
2013-05-01 00:46:00,26.4,24.6,30.14,NE,34,0.0,0.0,93,0.00,,---,0.00,0.00,VWS V14.01,2013-05-01 06:46:00,
2013-05-01 00:51:00,26.4,24.6,30.14,NE,34,0.0,0.0,93,0.00,,---,0.00,0.00,VWS V14.01,2013-05-01 06:51:00,
2013-05-01 00:56:00,26.3,24.6,30.15,NE,34,0.0,0.0,93,0.00,,---,0.00,0.00,VWS V14.01,2013-05-01 06:56:00,
2013-05-01 01:01:00,26.3,24.6,30.15,NE,34,0.0,0.0,93,0.00,,---,0.00,0.00,VWS V14.01,2013-05-01 07:01:00,
2013-05-01 01:06:00,26.3,24.6,30.15,NE,34,0.0,0.0,93,0.00,,---,0.00,0.00,VWS V14.01,2013-05-01 07:06:00,
2013-05-01 01:11:00,26.3,24.6,30.15,NE,34,0.0,0.0,93,0.00,,---,0.00,0.00,VWS V14.01,2013-05-01 07:11:00,
2013-05-01 01:16:00,26.2,24.5,30.16,NE,34,0.0,0.0,93,0.00,,---,0.00,0.00,VWS V14.01,2013-05-01 07:16:00,
2013-05-01 01:21:00,26.2,24.5,30.15,NE,34,0.0,0.0,93,0.00,,---,0.00,0.00,VWS V14.01,2013-05-01 07:21:00,
2013-05-01 01:26:00,26.2,24.5,30.16,NE,34,0.0,0.0,93,0.00,,---,0.00,0.00,VWS V14.01,2013-05-01 07:26:00,
2013-05-01 01:31:00,26.2,24.5,30.16,NE,34,0.0,0.0,93,0.00,,---,0.00,0.00,VWS V14.01,2013-05-01 07:31:00,
2013-05-01 01:36:00,26.2,24.5,30.17,NE,34,0.0,0.0,93,0.00,,---,0.00,0.00,VWS V14.01,2013-05-01 07:36:00,
2013-05-01 01:41:00,26.1,24.4,30.16,NE,34,0.0,0.0,93,0.00,,---,0.00,0.00,VWS V14.01,2013-05-01 07:41:00,
2013-05-01 01:46:00,26.1,24.4,30.17,NE,34,0.0,0.0,93,0.00,,---,0.00,0.00,VWS V14.01,2013-05-01 07:46:00,
2013-05-01 01:51:00,26.1,24.4,30.18,NE,34,0.0,0.0,93,0.00,,---,0.00,0.00,VWS V14.01,2013-05-01 07:51:00,
2013-05-01 01:56:00,26.1,24.4,30.19,NE,34,0.0,0.0,93,0.00,,---,0.00,0.00,VWS V14.01,2013-05-01 07:56:00,
2013-05-01 02:01:00,26.1,24.4,30.18,NE,34,0.0,0.0,93,0.00,,---,0.00,0.00,VWS V14.01,2013-05-01 08:01:00,
2013-05-01 02:06:00,26.0,24.3,30.18,NE,34,0.0,0.0,93,0.00,,---,0.00,0.00,VWS V14.01,2013-05-01 08:06:00,
2013-05-01 02:11:00,26.0,24.3,30.18,NE,34,0.0,0.0,93,0.00,,---,0.00,0.00,VWS V14.01,2013-05-01 08:11:00,
2013-05-01 02:16:00,26.0,24.3,30.18,NE,34,0.0,0.0,93,0.00,,---,0.00,0.00,VWS V14.01,2013-05-01 08:16:00,
2013-05-01 02:21:00,26.0,24.3,30.20,NE,34,0.0,0.0,93,0.00,,---,0.00,0.00,VWS V14.01,2013-05-01 08:21:00,
2013-05-01 02:26:00,26.0,24.3,30.20,NE,34,0.0,0.0,93,0.00,,---,0.00,0.00,VWS V14.01,2013-05-01 08:26:00,
2013-05-01 02:31:00,26.0,24.3,30.20,NE,34,0.0,0.0,93,0.00,,---,0.00,0.00,VWS V14.01,2013-05-01 08:31:00,
2013-05-01 02:36:00,26.0,24.3,30.19,NE,34,0.0,0.0,93,0.00,,---,0.00,0.00,VWS V14.01,2013-05-01 08:36:00,
2013-05-01 02:41:00,26.0,24.3,30.19,NE,34,0.0,0.0,93,0.00,,---,0.00,0.00,VWS V14.01,2013-05-01 08:41:00,
2013-05-01 02:46:00,26.0,24.3,30.20,NE,34,0.0,0.0,93,0.00,,---,0.00,0.00,VWS V14.01,2013-05-01 08:46:00,
2013-05-01 02:51:00,26.0,24.3,30.21,NE,34,0.0,0.0,93,0.00,,---,0.00,0.00,VWS V14.01,2013-05-01 08:51:00,
2013-05-01 02:56:00,25.9,24.2,30.21,NE,34,0.0,0.0,93,0.00,,---,0.00,0.00,VWS V14.01,2013-05-01 08:56:00,
2013-05-01 03:01:00,25.9,24.2,30.21,NE,34,0.0,0.0,93,0.00,,---,0.00,0.00,VWS V14.01,2013-05-01 09:01:00,
2013-05-01 03:06:00,25.9,24.2,30.21,NE,34,0.0,0.0,93,0.00,,---,0.00,0.00,VWS V14.01,2013-05-01 09:06:00,
2013-05-01 03:10:00,25.9,24.2,30.21,NE,34,0.0,0.0,93,0.00,,---,0.00,0.00,VWS V14.01,2013-05-01 09:10:00,
2013-05-01 03:15:00,25.8,24.1,30.21,NE,34,0.0,0.0,93,0.00,,---,0.00,0.00,VWS V14.01,2013-05-01 09:15:00,
2013-05-01 03:20:00,25.7,24.0,30.21,NE,34,0.0,0.0,93,0.00,,---,0.00,0.00,VWS V14.01,2013-05-01 09:20:00,
2013-05-01 03:25:00,25.6,23.9,30.22,NE,34,0.0,0.0,93,0.00,,---,0.00,0.00,VWS V14.01,2013-05-01 09:25:00,
2013-05-01 03:30:00,25.5,23.8,30.22,NE,34,0.0,0.0,93,0.00,,---,0.00,0.00,VWS V14.01,2013-05-01 09:30:00,
2013-05-01 03:35:00,25.4,23.7,30.22,NE,34,0.0,0.0,93,0.00,,---,0.00,0.00,VWS V14.01,2013-05-01 09:35:00,
2013-05-01 03:40:00,25.3,23.6,30.22,NE,34,0.0,0.0,93,0.00,,---,0.00,0.00,VWS V14.01,2013-05-01 09:40:00,
2013-05-01 03:45:00,25.3,23.6,30.22,NE,34,0.0,0.0,93,0.00,,---,0.00,0.00,VWS V14.01,2013-05-01 09:45:00,
2013-05-01 03:50:00,25.1,23.4,30.22,NE,34,0.0,0.0,93,0.00,,---,0.00,0.00,VWS V14.01,2013-05-01 09:50:00,
2013-05-01 03:55:00,25.1,23.1,30.23,NE,34,0.0,0.0,92,0.00,,---,0.00,0.00,VWS V14.01,2013-05-01 09:55:00,
2013-05-01 04:00:00,24.9,23.2,30.23,NE,34,0.0,0.0,93,0.00,,---,0.00,0.00,VWS V14.01,2013-05-01 10:00:00,
2013-05-01 04:05:00,24.8,23.1,30.23,NE,34,0.0,0.0,93,0.00,,---,0.00,0.00,VWS V14.01,2013-05-01 10:05:00,
2013-05-01 04:10:00,24.7,23.0,30.24,NE,34,0.0,0.0,93,0.00,,---,0.00,0.00,VWS V14.01,2013-05-01 10:10:00,
2013-05-01 04:15:00,24.6,22.6,30.24,NE,34,0.0,0.0,92,0.00,,---,0.00,0.00,VWS V14.01,2013-05-01 10:15:00,
2013-05-01 04:20:00,24.5,22.8,30.24,NE,34,0.0,0.0,93,0.00,,---,0.00,0.00,VWS V14.01,2013-05-01 10:20:00,
2013-05-01 04:25:00,24.5,22.8,30.24,NE,34,0.0,0.0,93,0.00,,---,0.00,0.00,VWS V14.01,2013-05-01 10:25:00,
2013-05-01 04:30:00,24.4,22.7,30.25,NE,34,0.0,0.0,93,0.00,,---,0.00,0.00,VWS V14.01,2013-05-01 10:30:00,
2013-05-01 04:35:00,24.4,22.7,30.25,NE,34,0.0,0.0,93,0.00,,---,0.00,0.00,VWS V14.01,2013-05-01 10:35:00,
2013-05-01 04:40:00,24.4,22.7,30.26,NE,34,0.0,0.0,93,0.00,,---,0.00,0.00,VWS V14.01,2013-05-01 10:40:00,
2013-05-01 04:45:00,24.3,22.6,30.26,NE,34,0.0,0.0,93,0.00,,---,0.00,0.00,VWS V14.01,2013-05-01 10:45:00,
2013-05-01 04:51:00,24.3,22.6,30.27,NE,34,0.0,0.0,93,0.01,,---,0.01,0.00,VWS V14.01,2013-05-01 10:51:00,
2013-05-01 04:56:00,24.3,22.6,30.27,NE,34,0.0,0.0,93,0.01,,---,0.01,0.00,VWS V14.01,2013-05-01 10:56:00,
2013-05-01 05:01:00,24.2,22.5,30.27,NE,34,0.0,0.0,93,0.01,,---,0.01,0.00,VWS V14.01,2013-05-01 11:01:00,
2013-05-01 05:06:00,24.2,22.5,30.27,NE,34,0.0,0.0,93,0.01,,---,0.01,0.00,VWS V14.01,2013-05-01 11:06:00,
2013-05-01 05:10:00,24.2,22.5,30.27,NE,34,0.0,0.0,93,0.01,,---,0.01,0.00,VWS V14.01,2013-05-01 11:10:00,
2013-05-01 05:15:00,24.2,22.5,30.28,NE,34,0.0,0.0,93,0.01,,---,0.01,0.00,VWS V14.01,2013-05-01 11:15:00,
2013-05-01 05:20:00,24.2,22.5,30.28,NE,34,0.0,0.0,93,0.01,,---,0.01,0.00,VWS V14.01,2013-05-01 11:20:00,
2013-05-01 05:25:00,24.1,22.4,30.28,NE,34,0.0,0.0,93,0.01,,---,0.01,0.00,VWS V14.01,2013-05-01 11:25:00,
2013-05-01 05:30:00,24.1,22.4,30.29,NE,34,0.0,0.0,93,0.01,,---,0.01,0.00,VWS V14.01,2013-05-01 11:30:00,
2013-05-01 05:35:00,24.1,22.4,30.29,NE,34,0.0,0.0,93,0.01,,---,0.01,0.00,VWS V14.01,2013-05-01 11:35:00,
2013-05-01 05:40:00,24.1,22.4,30.29,NE,34,0.0,0.0,93,0.01,,---,0.01,0.00,VWS V14.01,2013-05-01 11:40:00,
2013-05-01 05:45:00,24.1,22.4,30.30,NE,34,0.0,0.0,93,0.01,,---,0.01,0.00,VWS V14.01,2013-05-01 11:45:00,
2013-05-01 05:50:00,24.1,22.4,30.30,NE,34,0.0,0.0,93,0.01,,---,0.01,0.00,VWS V14.01,2013-05-01 11:50:00,
2013-05-01 05:55:00,24.1,22.4,30.30,NE,34,0.0,0.0,93,0.01,,---,0.01,0.00,VWS V14.01,2013-05-01 11:55:00,
2013-05-01 06:00:00,24.1,22.4,30.31,NE,34,0.0,0.0,93,0.00,,---,0.01,0.00,VWS V14.01,2013-05-01 12:00:00,
2013-05-01 06:05:00,24.1,22.4,30.31,NE,34,0.0,0.0,93,0.00,,---,0.01,0.00,VWS V14.01,2013-05-01 12:05:00,
2013-05-01 06:10:00,24.1,22.4,30.32,NE,34,0.0,0.0,93,0.00,,---,0.01,0.00,VWS V14.01,2013-05-01 12:10:00,
2013-05-01 06:15:00,24.1,22.4,30.32,NE,34,0.0,0.0,93,0.00,,---,0.01,0.00,VWS V14.01,2013-05-01 12:15:00,
2013-05-01 06:20:00,24.1,22.4,30.32,NE,34,0.0,0.0,93,0.00,,---,0.01,0.00,VWS V14.01,2013-05-01 12:20:00,
2013-05-01 06:25:00,24.1,22.4,30.33,NE,34,0.0,0.0,93,0.00,,---,0.01,0.00,VWS V14.01,2013-05-01 12:25:00,
2013-05-01 06:30:00,24.0,22.3,30.33,NE,34,0.0,0.0,93,0.00,,---,0.01,0.00,VWS V14.01,2013-05-01 12:30:00,
2013-05-01 06:35:00,23.6,21.4,30.33,NE,34,0.0,0.0,91,0.00,,---,0.01,0.00,VWS V14.01,2013-05-01 12:35:00,
2013-05-01 06:40:00,23.2,21.0,30.34,NE,34,0.0,0.0,91,0.00,,---,0.01,9.00,VWS V14.01,2013-05-01 12:40:00,
2013-05-01 06:45:00,22.9,20.7,30.34,NE,34,0.0,0.0,91,0.00,,---,0.01,16.00,VWS V14.01,2013-05-01 12:45:00,
2013-05-01 06:50:00,22.6,20.4,30.34,NE,34,0.0,0.0,91,0.00,,---,0.01,19.00,VWS V14.01,2013-05-01 12:50:00,
2013-05-01 06:55:00,22.5,20.3,30.34,NE,34,0.0,0.0,91,0.00,,---,0.01,21.00,VWS V14.01,2013-05-01 12:55:00,
2013-05-01 07:00:00,22.5,20.3,30.35,NE,34,0.0,0.0,91,0.00,,---,0.01,23.00,VWS V14.01,2013-05-01 13:00:00,
2013-05-01 07:05:00,22.4,20.2,30.35,NE,34,0.0,0.0,91,0.00,,---,0.01,25.00,VWS V14.01,2013-05-01 13:05:00,
2013-05-01 07:10:00,22.4,20.2,30.35,NE,34,0.0,0.0,91,0.00,,---,0.01,32.00,VWS V14.01,2013-05-01 13:10:00,
2013-05-01 07:15:00,22.4,20.2,30.35,NE,34,0.0,0.0,91,0.00,,---,0.01,33.00,VWS V14.01,2013-05-01 13:15:00,
2013-05-01 07:20:00,22.5,20.3,30.36,NE,34,0.0,0.0,91,0.00,,---,0.01,37.00,VWS V14.01,2013-05-01 13:20:00,
2013-05-01 07:25:00,22.5,20.3,30.36,NE,34,0.0,0.0,91,0.00,,---,0.01,37.00,VWS V14.01,2013-05-01 13:25:00,
2013-05-01 07:30:00,22.6,20.4,30.37,NE,34,0.0,0.0,91,0.00,,---,0.01,47.00,VWS V14.01,2013-05-01 13:30:00,
2013-05-01 07:35:00,22.5,20.3,30.37,NE,34,0.0,0.0,91,0.00,,---,0.01,53.00,VWS V14.01,2013-05-01 13:35:00,
2013-05-01 07:40:00,22.5,20.3,30.37,NE,34,0.0,0.0,91,0.00,,---,0.01,51.00,VWS V14.01,2013-05-01 13:40:00,
2013-05-01 07:45:00,22.5,20.3,30.37,NE,34,0.0,0.0,91,0.00,,---,0.01,53.00,VWS V14.01,2013-05-01 13:45:00,
2013-05-01 07:50:00,22.5,20.0,30.37,NE,34,0.0,0.0,90,0.00,,---,0.01,67.00,VWS V14.01,2013-05-01 13:50:00,
2013-05-01 07:55:00,22.6,20.1,30.37,NE,34,0.0,0.0,90,0.00,,---,0.01,65.00,VWS V14.01,2013-05-01 13:55:00,
2013-05-01 08:00:00,22.7,20.2,30.38,NE,34,0.0,0.0,90,0.00,,---,0.01,67.00,VWS V14.01,2013-05-01 14:00:00,
2013-05-01 08:05:00,22.7,20.2,30.38,NE,34,0.0,0.0,90,0.00,,---,0.01,63.00,VWS V14.01,2013-05-01 14:05:00,
2013-05-01 08:10:00,22.7,20.2,30.39,NE,34,0.0,0.0,90,0.00,,---,0.01,79.00,VWS V14.01,2013-05-01 14:10:00,
2013-05-01 08:15:00,22.9,20.1,30.39,NE,34,0.0,0.0,89,0.00,,---,0.01,76.00,VWS V14.01,2013-05-01 14:15:00,
2013-05-01 08:20:00,22.9,20.1,30.39,NE,34,0.0,0.0,89,0.00,,---,0.01,83.00,VWS V14.01,2013-05-01 14:20:00,
2013-05-01 08:25:00,23.1,20.4,30.40,NE,34,0.0,0.0,89,0.00,,---,0.01,90.00,VWS V14.01,2013-05-01 14:25:00,
2013-05-01 08:30:00,23.2,20.5,30.40,NE,34,0.0,0.0,89,0.00,,---,0.01,98.00,VWS V14.01,2013-05-01 14:30:00,
2013-05-01 08:35:00,23.4,20.6,30.40,NE,34,0.0,0.0,89,0.00,,---,0.01,97.00,VWS V14.01,2013-05-01 14:35:00,
2013-05-01 08:40:00,23.5,20.5,30.40,NE,34,0.0,0.0,88,0.00,,---,0.01,102.00,VWS V14.01,2013-05-01 14:40:00,
2013-05-01 08:45:00,23.6,20.6,30.40,NE,34,0.0,0.0,88,0.00,,---,0.01,105.00,VWS V14.01,2013-05-01 14:45:00,
2013-05-01 08:50:00,23.8,20.8,30.41,NE,34,0.0,0.0,88,0.00,,---,0.01,114.00,VWS V14.01,2013-05-01 14:50:00,
2013-05-01 08:55:00,23.8,20.8,30.41,NE,34,0.0,0.0,88,0.00,,---,0.01,104.00,VWS V14.01,2013-05-01 14:55:00,
2013-05-01 09:00:00,23.7,20.4,30.41,NE,34,0.0,0.0,87,0.00,,---,0.01,105.00,VWS V14.01,2013-05-01 15:00:00,
2013-05-01 09:05:00,23.7,20.4,30.41,NE,34,0.0,0.0,87,0.00,,---,0.01,120.00,VWS V14.01,2013-05-01 15:05:00,
2013-05-01 09:10:00,23.6,20.3,30.41,NE,34,0.0,0.0,87,0.00,,---,0.01,128.00,VWS V14.01,2013-05-01 15:10:00,
2013-05-01 09:15:00,23.5,20.2,30.41,NE,34,0.0,0.0,87,0.00,,---,0.01,132.00,VWS V14.01,2013-05-01 15:15:00,
2013-05-01 09:20:00,23.3,19.7,30.42,NE,34,0.0,0.0,86,0.00,,---,0.01,134.00,VWS V14.01,2013-05-01 15:20:00,
2013-05-01 09:25:00,23.3,19.7,30.42,NE,34,0.0,0.0,86,0.00,,---,0.01,146.00,VWS V14.01,2013-05-01 15:25:00,
2013-05-01 09:30:00,23.3,19.5,30.42,NE,34,0.0,0.0,85,0.00,,---,0.01,144.00,VWS V14.01,2013-05-01 15:30:00,
2013-05-01 09:35:00,23.2,19.4,30.43,NE,34,0.0,0.0,85,0.00,,---,0.01,142.00,VWS V14.01,2013-05-01 15:35:00,
2013-05-01 09:40:00,23.3,19.5,30.43,NE,34,0.0,0.0,85,0.00,,---,0.01,148.00,VWS V14.01,2013-05-01 15:40:00,
2013-05-01 09:45:00,23.3,19.5,30.44,NE,34,0.0,0.0,85,0.00,,---,0.01,141.00,VWS V14.01,2013-05-01 15:45:00,
2013-05-01 09:50:00,23.2,19.1,30.44,NE,34,0.0,0.0,84,0.00,,---,0.01,142.00,VWS V14.01,2013-05-01 15:50:00,
2013-05-01 09:55:00,23.2,19.1,30.45,NE,34,0.0,0.0,84,0.00,,---,0.01,146.00,VWS V14.01,2013-05-01 15:55:00,
2013-05-01 10:00:00,23.2,19.1,30.45,NE,34,0.0,0.0,84,0.00,,---,0.01,141.00,VWS V14.01,2013-05-01 16:00:00,
2013-05-01 10:05:00,23.1,19.0,30.46,NE,34,0.0,0.0,84,0.00,,---,0.01,141.00,VWS V14.01,2013-05-01 16:05:00,
2013-05-01 10:10:00,23.0,18.9,30.46,NE,34,0.0,0.0,84,0.00,,---,0.01,142.00,VWS V14.01,2013-05-01 16:10:00,
2013-05-01 10:15:00,23.0,18.9,30.47,NE,34,0.0,0.0,84,0.00,,---,0.01,142.00,VWS V14.01,2013-05-01 16:15:00,
2013-05-01 10:20:00,23.0,18.9,30.47,NE,34,0.0,0.0,84,0.00,,---,0.01,142.00,VWS V14.01,2013-05-01 16:20:00,
2013-05-01 10:25:00,22.9,18.5,30.48,NE,34,0.0,0.0,83,0.00,,---,0.01,146.00,VWS V14.01,2013-05-01 16:25:00,
2013-05-01 10:30:00,22.9,18.5,30.48,NE,34,0.0,0.0,83,0.00,,---,0.01,165.00,VWS V14.01,2013-05-01 16:30:00,
2013-05-01 10:35:00,22.9,18.5,30.48,NE,34,0.0,0.0,83,0.00,,---,0.01,174.00,VWS V14.01,2013-05-01 16:35:00,
2013-05-01 10:40:00,22.9,18.5,30.49,NE,34,0.0,0.0,83,0.00,,---,0.01,172.00,VWS V14.01,2013-05-01 16:40:00,
2013-05-01 10:45:00,22.9,18.5,30.49,NE,34,0.0,0.0,83,0.00,,---,0.01,172.00,VWS V14.01,2013-05-01 16:45:00,
2013-05-01 10:50:00,22.8,18.4,30.49,NE,34,0.0,0.0,83,0.00,,---,0.01,171.00,VWS V14.01,2013-05-01 16:50:00,
2013-05-01 10:55:00,22.8,18.4,30.50,NE,34,0.0,0.0,83,0.00,,---,0.01,171.00,VWS V14.01,2013-05-01 16:55:00,
2013-05-01 11:00:00,22.9,18.5,30.50,NE,34,0.0,0.0,83,0.00,,---,0.01,174.00,VWS V14.01,2013-05-01 17:00:00,
2013-05-01 11:05:00,22.9,18.5,30.50,NE,34,0.0,0.0,83,0.00,,---,0.01,178.00,VWS V14.01,2013-05-01 17:05:00,
2013-05-01 11:10:00,23.0,18.6,30.51,NE,34,0.0,0.0,83,0.00,,---,0.01,186.00,VWS V14.01,2013-05-01 17:10:00,
2013-05-01 11:15:00,22.9,18.2,30.50,NE,34,0.0,0.0,82,0.00,,---,0.01,200.00,VWS V14.01,2013-05-01 17:15:00,
2013-05-01 11:20:00,23.0,18.3,30.51,NE,34,0.0,0.0,82,0.00,,---,0.01,199.00,VWS V14.01,2013-05-01 17:20:00,
2013-05-01 11:25:00,22.9,18.2,30.51,NE,34,0.0,0.0,82,0.00,,---,0.01,199.00,VWS V14.01,2013-05-01 17:25:00,
2013-05-01 11:30:00,22.7,18.0,30.51,NE,34,0.0,0.0,82,0.00,,---,0.01,209.00,VWS V14.01,2013-05-01 17:30:00,
2013-05-01 11:35:00,22.4,17.8,30.51,NE,34,0.0,0.0,82,0.00,,---,0.01,229.00,VWS V14.01,2013-05-01 17:35:00,
2013-05-01 11:40:00,22.4,17.5,30.51,NE,34,0.0,0.0,81,0.00,,---,0.01,253.00,VWS V14.01,2013-05-01 17:40:00,
2013-05-01 11:45:00,22.5,17.3,30.51,NE,34,0.0,0.0,80,0.00,,---,0.01,272.00,VWS V14.01,2013-05-01 17:45:00,
2013-05-01 11:50:00,22.7,17.5,30.51,NE,34,0.0,0.0,80,0.00,,---,0.01,278.00,VWS V14.01,2013-05-01 17:50:00,
2013-05-01 11:55:00,22.8,17.6,30.51,NE,34,0.0,0.0,80,0.00,,---,0.01,295.00,VWS V14.01,2013-05-01 17:55:00,
2013-05-01 12:00:00,23.1,17.9,30.51,NE,34,0.0,0.0,80,0.00,,---,0.01,297.00,VWS V14.01,2013-05-01 18:00:00,
2013-05-01 12:05:00,23.1,17.9,30.52,NE,34,0.0,0.0,80,0.00,,---,0.01,304.00,VWS V14.01,2013-05-01 18:05:00,
2013-05-01 12:10:00,23.1,17.9,30.52,NE,34,0.0,0.0,80,0.00,,---,0.01,325.00,VWS V14.01,2013-05-01 18:10:00,
2013-05-01 12:15:00,23.4,18.1,30.52,NE,34,0.0,0.0,80,0.00,,---,0.01,323.00,VWS V14.01,2013-05-01 18:15:00,
2013-05-01 12:20:00,23.5,18.0,30.52,NE,34,0.0,0.0,79,0.00,,---,0.01,353.00,VWS V14.01,2013-05-01 18:20:00,
2013-05-01 12:25:00,23.9,18.4,30.52,NE,34,0.0,0.0,79,0.00,,---,0.01,376.00,VWS V14.01,2013-05-01 18:25:00,
2013-05-01 12:30:00,24.1,18.5,30.52,NE,34,0.0,0.0,79,0.00,,---,0.01,330.00,VWS V14.01,2013-05-01 18:30:00,
2013-05-01 12:35:00,23.8,17.7,30.53,NE,34,0.0,0.0,77,0.00,,---,0.01,332.00,VWS V14.01,2013-05-01 18:35:00,
2013-05-01 12:40:00,23.4,17.9,30.53,NE,34,0.0,0.0,79,0.02,,---,0.03,279.00,VWS V14.01,2013-05-01 18:40:00,
2013-05-01 12:45:00,23.0,17.5,30.54,NE,34,0.0,0.0,79,0.02,,---,0.03,294.00,VWS V14.01,2013-05-01 18:45:00,
2013-05-01 12:50:00,23.0,17.8,30.54,NE,34,0.0,0.0,80,0.02,,---,0.03,318.00,VWS V14.01,2013-05-01 18:50:00,
2013-05-01 12:55:00,22.9,17.4,30.54,NE,34,0.0,0.0,79,0.02,,---,0.03,323.00,VWS V14.01,2013-05-01 18:55:00,
2013-05-01 13:00:00,22.8,17.6,30.54,NE,34,0.0,0.0,80,0.03,,---,0.04,320.00,VWS V14.01,2013-05-01 19:00:00,
2013-05-01 13:05:00,23.1,17.6,30.54,NE,34,0.0,0.0,79,0.04,,---,0.05,343.00,VWS V14.01,2013-05-01 19:05:00,
2013-05-01 13:10:00,23.2,17.7,30.55,NE,34,0.0,0.0,79,0.04,,---,0.05,327.00,VWS V14.01,2013-05-01 19:10:00,
2013-05-01 13:15:00,23.4,17.9,30.55,NE,34,0.0,0.0,79,0.04,,---,0.05,378.00,VWS V14.01,2013-05-01 19:15:00,
2013-05-01 13:20:00,23.9,18.4,30.55,NE,34,0.0,0.0,79,0.04,,---,0.05,353.00,VWS V14.01,2013-05-01 19:20:00,
2013-05-01 13:25:00,23.6,18.1,30.55,NE,34,0.0,0.0,79,0.04,,---,0.05,422.00,VWS V14.01,2013-05-01 19:25:00,
2013-05-01 13:30:00,23.8,18.0,30.56,NE,34,0.0,0.0,78,0.04,,---,0.05,353.00,VWS V14.01,2013-05-01 19:30:00,
2013-05-01 13:35:00,23.5,18.0,30.56,NE,34,0.0,0.0,79,0.04,,---,0.05,320.00,VWS V14.01,2013-05-01 19:35:00,
2013-05-01 13:40:00,23.1,17.6,30.57,NE,34,0.0,0.0,79,0.04,,---,0.05,334.00,VWS V14.01,2013-05-01 19:40:00,
2013-05-01 13:45:00,23.5,18.2,30.57,NE,34,0.0,0.0,80,0.04,,---,0.05,424.00,VWS V14.01,2013-05-01 19:45:00,
2013-05-01 13:50:00,24.3,19.0,30.57,NE,34,0.0,0.0,80,0.04,,---,0.05,410.00,VWS V14.01,2013-05-01 19:50:00,
2013-05-01 13:55:00,24.1,18.2,30.58,NE,34,0.0,0.0,78,0.04,,---,0.05,338.00,VWS V14.01,2013-05-01 19:55:00,
2013-05-01 14:00:00,23.5,17.7,30.58,NE,34,0.0,0.0,78,0.02,,---,0.06,341.00,VWS V14.01,2013-05-01 20:00:00,
2013-05-01 14:05:00,23.3,18.1,30.58,NE,34,0.0,0.0,80,0.03,,---,0.07,418.00,VWS V14.01,2013-05-01 20:05:00,
2013-05-01 14:10:00,23.9,18.4,30.59,NE,34,0.0,0.0,79,0.03,,---,0.07,383.00,VWS V14.01,2013-05-01 20:10:00,
2013-05-01 14:15:00,23.4,17.6,30.59,NE,34,0.0,0.0,78,0.03,,---,0.07,355.00,VWS V14.01,2013-05-01 20:15:00,
2013-05-01 14:20:00,23.1,17.9,30.59,NE,34,0.0,0.0,80,0.03,,---,0.07,401.00,VWS V14.01,2013-05-01 20:20:00,
2013-05-01 14:25:00,23.4,18.1,30.59,NE,34,0.0,0.0,80,0.03,,---,0.07,399.00,VWS V14.01,2013-05-01 20:25:00,
2013-05-01 14:30:00,23.6,18.4,30.60,NE,34,0.0,0.0,80,0.02,,---,0.07,406.00,VWS V14.01,2013-05-01 20:30:00,
2013-05-01 14:35:00,23.6,18.4,30.60,NE,34,0.0,0.0,80,0.03,,---,0.08,381.00,VWS V14.01,2013-05-01 20:35:00,
2013-05-01 14:40:00,23.3,18.1,30.60,NE,34,0.0,0.0,80,0.03,,---,0.08,359.00,VWS V14.01,2013-05-01 20:40:00,
2013-05-01 14:45:00,23.0,17.8,30.61,NE,34,0.0,0.0,80,0.03,,---,0.08,367.00,VWS V14.01,2013-05-01 20:45:00,
2013-05-01 14:50:00,22.9,17.4,30.61,NE,34,0.0,0.0,79,0.03,,---,0.08,352.00,VWS V14.01,2013-05-01 20:50:00,
2013-05-01 14:55:00,22.9,17.7,30.61,NE,34,0.0,0.0,80,0.03,,---,0.08,396.00,VWS V14.01,2013-05-01 20:55:00,
2013-05-01 15:00:00,23.0,18.0,30.61,NE,34,0.0,0.0,81,0.02,,---,0.08,466.00,VWS V14.01,2013-05-01 21:00:00,
2013-05-01 15:05:00,23.2,18.2,30.61,NE,34,0.0,0.0,81,0.02,,---,0.08,473.00,VWS V14.01,2013-05-01 21:05:00,
2013-05-01 15:10:00,23.1,18.1,30.62,NE,34,0.0,0.0,81,0.02,,---,0.08,362.00,VWS V14.01,2013-05-01 21:10:00,
2013-05-01 15:15:00,22.4,17.5,30.62,NE,34,0.0,0.0,81,0.03,,---,0.09,369.00,VWS V14.01,2013-05-01 21:15:00,
2013-05-01 15:20:00,22.4,17.8,30.62,NE,34,0.0,0.0,82,0.03,,---,0.09,406.00,VWS V14.01,2013-05-01 21:20:00,
2013-05-01 15:25:00,22.9,18.2,30.62,NE,34,0.0,0.0,82,0.03,,---,0.09,434.00,VWS V14.01,2013-05-01 21:25:00,
2013-05-01 15:30:00,22.9,18.2,30.62,NE,34,0.0,0.0,82,0.02,,---,0.09,432.00,VWS V14.01,2013-05-01 21:30:00,
2013-05-01 15:35:00,23.0,18.3,30.62,NE,34,0.0,0.0,82,0.02,,---,0.09,469.00,VWS V14.01,2013-05-01 21:35:00,
2013-05-01 15:40:00,23.0,18.0,30.62,NE,34,0.0,0.0,81,0.02,,---,0.09,417.00,VWS V14.01,2013-05-01 21:40:00,
2013-05-01 15:45:00,22.5,17.9,30.62,NE,34,0.0,0.0,82,0.02,,---,0.09,348.00,VWS V14.01,2013-05-01 21:45:00,
2013-05-01 15:50:00,22.5,17.9,30.63,NE,34,0.0,0.0,82,0.02,,---,0.09,401.00,VWS V14.01,2013-05-01 21:50:00,
2013-05-01 15:55:00,22.7,18.0,30.63,NE,34,0.0,0.0,82,0.02,,---,0.09,457.00,VWS V14.01,2013-05-01 21:55:00,
2013-05-01 16:00:00,23.0,18.3,30.62,NE,34,0.0,0.0,82,0.01,,---,0.09,508.00,VWS V14.01,2013-05-01 22:00:00,
2013-05-01 16:05:00,23.2,18.8,30.63,NE,34,0.0,0.0,83,0.01,,---,0.09,517.00,VWS V14.01,2013-05-01 22:05:00,
2013-05-01 16:10:00,23.5,18.8,30.64,NE,34,0.0,0.0,82,0.01,,---,0.09,420.00,VWS V14.01,2013-05-01 22:10:00,
2013-05-01 16:15:00,22.7,17.8,30.64,NE,34,0.0,0.0,81,0.01,,---,0.09,446.00,VWS V14.01,2013-05-01 22:15:00,
2013-05-01 16:20:00,22.5,17.9,30.64,NE,34,0.0,0.0,82,0.01,,---,0.09,380.00,VWS V14.01,2013-05-01 22:20:00,
2013-05-01 16:25:00,22.6,18.2,30.65,NE,34,0.0,0.0,83,0.01,,---,0.09,563.00,VWS V14.01,2013-05-01 22:25:00,
2013-05-01 16:30:00,22.9,18.5,30.65,NE,34,0.0,0.0,83,0.00,,---,0.09,584.00,VWS V14.01,2013-05-01 22:30:00,
2013-05-01 16:35:00,22.8,18.4,30.65,NE,34,0.0,0.0,83,0.00,,---,0.09,585.00,VWS V14.01,2013-05-01 22:35:00,
2013-05-01 16:40:00,23.0,18.6,30.66,NE,34,0.0,0.0,83,0.00,,---,0.09,563.00,VWS V14.01,2013-05-01 22:40:00,
2013-05-01 16:45:00,23.0,18.6,30.66,NE,34,0.0,0.0,83,0.00,,---,0.09,631.00,VWS V14.01,2013-05-01 22:45:00,
2013-05-01 16:50:00,23.0,18.6,30.67,NE,34,0.0,0.0,83,0.00,,---,0.09,513.00,VWS V14.01,2013-05-01 22:50:00,
2013-05-01 16:55:00,22.6,18.2,30.67,NE,34,0.0,0.0,83,0.00,,---,0.09,396.00,VWS V14.01,2013-05-01 22:55:00,
2013-05-01 17:00:00,23.0,18.3,30.67,North,349,0.0,0.0,82,0.00,,---,0.09,635.00,VWS V14.01,2013-05-01 23:00:00,
2013-05-01 17:05:00,23.0,18.3,30.68,North,5,0.0,1.0,82,0.00,,---,0.09,594.00,VWS V14.01,2013-05-01 23:05:00,
2013-05-01 17:10:00,22.7,18.0,30.68,NNW,347,0.0,1.0,82,0.00,,---,0.09,425.00,VWS V14.01,2013-05-01 23:10:00,
2013-05-01 17:15:00,22.4,18.0,30.68,North,9,0.0,1.0,83,0.00,,---,0.09,582.00,VWS V14.01,2013-05-01 23:15:00,
2013-05-01 17:20:00,22.3,17.6,30.68,NE,35,0.0,1.0,82,0.00,,---,0.09,355.00,VWS V14.01,2013-05-01 23:20:00,
2013-05-01 17:25:00,21.8,17.4,30.69,NE,34,0.0,1.0,83,0.00,,---,0.09,308.00,VWS V14.01,2013-05-01 23:25:00,
2013-05-01 17:30:00,21.5,17.4,30.69,NNE,12,0.0,0.0,84,0.00,,---,0.09,341.00,VWS V14.01,2013-05-01 23:30:00,
2013-05-01 17:35:00,21.6,17.5,30.69,NE,34,0.0,0.0,84,0.00,,---,0.09,318.00,VWS V14.01,2013-05-01 23:35:00,
2013-05-01 17:40:00,21.4,17.3,30.70,NE,37,0.0,0.0,84,0.00,,---,0.09,243.00,VWS V14.01,2013-05-01 23:40:00,
2013-05-01 17:45:00,21.2,17.1,30.70,NNE,22,0.0,0.0,84,0.00,,---,0.09,204.00,VWS V14.01,2013-05-01 23:45:00,
2013-05-01 17:50:00,21.1,17.3,30.70,North,355,0.0,0.0,85,0.00,,---,0.09,174.00,VWS V14.01,2013-05-01 23:50:00,
2013-05-01 17:55:00,20.9,16.8,30.71,NE,39,0.0,0.0,84,0.00,,---,0.09,223.00,VWS V14.01,2013-05-01 23:55:00,
2013-05-01 18:00:00,20.7,16.6,30.71,NE,42,0.0,0.0,84,0.00,,---,0.09,246.00,VWS V14.01,2013-05-02 00:00:00,
2013-05-01 18:05:00,20.6,16.5,30.72,North,349,0.0,0.0,84,0.00,,---,0.09,255.00,VWS V14.01,2013-05-02 00:05:00,
2013-05-01 18:10:00,20.5,16.7,30.72,NE,35,0.0,0.0,85,0.00,,---,0.09,264.00,VWS V14.01,2013-05-02 00:10:00,
2013-05-01 18:15:00,20.6,16.8,30.72,NE,38,0.0,0.0,85,0.00,,---,0.09,267.00,VWS V14.01,2013-05-02 00:15:00,
2013-05-01 18:20:00,20.5,17.0,30.73,NE,38,0.0,0.0,86,0.00,,---,0.09,218.00,VWS V14.01,2013-05-02 00:20:00,
2013-05-01 18:25:00,20.6,17.1,30.73,NE,40,0.0,0.0,86,0.00,,---,0.09,225.00,VWS V14.01,2013-05-02 00:25:00,
2013-05-01 18:30:00,20.5,17.0,30.73,North,360,0.0,0.0,86,0.00,,---,0.09,165.00,VWS V14.01,2013-05-02 00:30:00,
2013-05-01 18:35:00,20.4,16.9,30.74,NNW,344,0.0,0.0,86,0.00,,---,0.09,135.00,VWS V14.01,2013-05-02 00:35:00,
2013-05-01 18:40:00,20.3,16.8,30.74,North,355,0.0,0.0,86,0.00,,---,0.09,114.00,VWS V14.01,2013-05-02 00:40:00,
2013-05-01 18:45:00,20.3,17.1,30.74,NNE,24,0.0,0.0,87,0.00,,---,0.09,104.00,VWS V14.01,2013-05-02 00:45:00,
2013-05-01 18:50:00,20.3,17.1,30.74,NE,34,0.0,0.0,87,0.00,,---,0.09,97.00,VWS V14.01,2013-05-02 00:50:00,
2013-05-01 18:55:00,20.2,17.0,30.74,NE,40,0.0,0.0,87,0.00,,---,0.09,83.00,VWS V14.01,2013-05-02 00:55:00,
2013-05-01 19:00:00,20.1,16.9,30.75,North,5,0.0,0.0,87,0.00,,---,0.09,77.00,VWS V14.01,2013-05-02 01:00:00,
2013-05-01 19:05:00,20.0,16.8,30.75,NE,39,0.0,0.0,87,0.00,,---,0.09,69.00,VWS V14.01,2013-05-02 01:05:00,
2013-05-01 19:10:00,19.9,16.9,30.75,NNE,13,0.0,0.0,88,0.00,,---,0.09,53.00,VWS V14.01,2013-05-02 01:10:00,
2013-05-01 19:15:00,19.8,16.8,30.76,North,5,0.0,0.0,88,0.00,,---,0.09,42.00,VWS V14.01,2013-05-02 01:15:00,
2013-05-01 19:20:00,19.5,16.5,30.76,NNE,19,0.0,0.0,88,0.00,,---,0.09,32.00,VWS V14.01,2013-05-02 01:20:00,
2013-05-01 19:25:00,19.3,16.3,30.76,North,360,0.0,0.0,88,0.00,,---,0.09,26.00,VWS V14.01,2013-05-02 01:25:00,
2013-05-01 19:31:00,19.0,16.0,30.76,North,11,0.0,0.0,88,0.00,,---,0.09,23.00,VWS V14.01,2013-05-02 01:31:00,
2013-05-01 19:36:00,18.8,15.8,30.77,NNE,21,0.0,0.0,88,0.00,,---,0.09,18.00,VWS V14.01,2013-05-02 01:36:00,
2013-05-01 19:41:00,18.5,15.6,30.77,NNE,27,0.0,0.0,88,0.00,,---,0.09,12.00,VWS V14.01,2013-05-02 01:41:00,
2013-05-01 19:46:00,18.1,15.4,30.77,NNE,28,0.0,0.0,89,0.00,,---,0.09,9.00,VWS V14.01,2013-05-02 01:46:00,
2013-05-01 19:51:00,17.8,15.1,30.78,North,360,0.0,0.0,89,0.00,,---,0.09,5.00,VWS V14.01,2013-05-02 01:51:00,
2013-05-01 19:56:00,17.6,14.7,30.78,North,350,0.0,0.0,88,0.00,,---,0.09,0.00,VWS V14.01,2013-05-02 01:56:00,
2013-05-01 20:01:00,17.5,14.3,30.79,NNE,24,0.0,0.0,87,0.00,,---,0.09,0.00,VWS V14.01,2013-05-02 02:01:00,
2013-05-01 20:06:00,17.3,14.4,30.79,North,5,0.0,0.0,88,0.00,,---,0.09,0.00,VWS V14.01,2013-05-02 02:06:00,
2013-05-01 20:11:00,17.1,14.2,30.80,North,360,0.0,0.0,88,0.00,,---,0.09,0.00,VWS V14.01,2013-05-02 02:11:00,
2013-05-01 20:16:00,17.0,13.8,30.80,NNE,16,0.0,0.0,87,0.00,,---,0.09,0.00,VWS V14.01,2013-05-02 02:16:00,
2013-05-01 20:21:00,17.1,13.9,30.80,NNE,15,0.0,0.0,87,0.00,,---,0.09,0.00,VWS V14.01,2013-05-02 02:21:00,
2013-05-01 20:26:00,17.1,13.9,30.81,NNE,15,0.0,0.0,87,0.00,,---,0.09,0.00,VWS V14.01,2013-05-02 02:26:00,
2013-05-01 20:31:00,16.8,13.4,30.81,NNE,15,0.0,0.0,86,0.00,,---,0.09,0.00,VWS V14.01,2013-05-02 02:31:00,
2013-05-01 20:36:00,16.4,13.2,30.81,NNW,328,0.0,0.0,87,0.00,,---,0.09,0.00,VWS V14.01,2013-05-02 02:36:00,
2013-05-01 20:41:00,16.2,13.3,30.81,NNW,328,0.0,0.0,88,0.00,,---,0.09,0.00,VWS V14.01,2013-05-02 02:41:00,
2013-05-01 20:46:00,16.2,13.5,30.82,NNW,331,0.0,0.0,89,0.00,,---,0.09,0.00,VWS V14.01,2013-05-02 02:46:00,
2013-05-01 20:51:00,16.4,13.7,30.82,NNW,330,0.0,0.0,89,0.00,,---,0.09,0.00,VWS V14.01,2013-05-02 02:51:00,
2013-05-01 20:56:00,16.5,13.8,30.82,NNW,329,0.0,0.0,89,0.00,,---,0.09,0.00,VWS V14.01,2013-05-02 02:56:00,
2013-05-01 21:01:00,16.4,13.7,30.83,NNW,329,0.0,0.0,89,0.00,,---,0.09,0.00,VWS V14.01,2013-05-02 03:01:00,
2013-05-01 21:06:00,16.5,13.6,30.83,NNW,329,0.0,0.0,88,0.00,,---,0.09,0.00,VWS V14.01,2013-05-02 03:06:00,
2013-05-01 21:11:00,16.6,13.7,30.83,NNW,327,0.0,0.0,88,0.00,,---,0.09,0.00,VWS V14.01,2013-05-02 03:11:00,
2013-05-01 21:16:00,16.6,13.9,30.83,NNW,327,0.0,0.0,89,0.00,,---,0.09,0.00,VWS V14.01,2013-05-02 03:16:00,
2013-05-01 21:21:00,16.4,13.5,30.84,NW,325,0.0,0.0,88,0.00,,---,0.09,0.00,VWS V14.01,2013-05-02 03:21:00,
2013-05-01 21:26:00,16.2,13.3,30.84,NW,324,0.0,0.0,88,0.00,,---,0.09,0.00,VWS V14.01,2013-05-02 03:26:00,
2013-05-01 21:31:00,15.9,12.7,30.84,NW,323,0.0,0.0,87,0.00,,---,0.09,0.00,VWS V14.01,2013-05-02 03:31:00,
2013-05-01 21:36:00,15.7,12.5,30.84,NW,325,0.0,0.0,87,0.00,,---,0.09,0.00,VWS V14.01,2013-05-02 03:36:00,
2013-05-01 21:41:00,15.6,12.7,30.84,NNW,327,0.0,0.0,88,0.00,,---,0.09,0.00,VWS V14.01,2013-05-02 03:41:00,
2013-05-01 21:46:00,15.6,12.4,30.84,NW,326,0.0,0.0,87,0.00,,---,0.09,0.00,VWS V14.01,2013-05-02 03:46:00,
2013-05-01 21:51:00,15.6,12.4,30.85,NNW,327,0.0,0.0,87,0.00,,---,0.09,0.00,VWS V14.01,2013-05-02 03:51:00,
2013-05-01 21:56:00,15.6,12.4,30.85,NNW,331,0.0,0.0,87,0.00,,---,0.09,0.00,VWS V14.01,2013-05-02 03:56:00,
2013-05-01 22:01:00,15.7,12.5,30.85,NNW,331,0.0,0.0,87,0.00,,---,0.09,0.00,VWS V14.01,2013-05-02 04:01:00,
2013-05-01 22:06:00,15.5,12.1,30.85,NNW,331,0.0,0.0,86,0.00,,---,0.09,0.00,VWS V14.01,2013-05-02 04:06:00,
2013-05-01 22:11:00,15.7,12.3,30.85,NNW,332,0.0,0.0,86,0.00,,---,0.09,0.00,VWS V14.01,2013-05-02 04:11:00,
2013-05-01 22:16:00,15.8,12.4,30.85,NNW,327,0.0,0.0,86,0.00,,---,0.09,0.00,VWS V14.01,2013-05-02 04:16:00,
2013-05-01 22:21:00,15.7,12.0,30.85,NW,326,0.0,0.0,85,0.00,,---,0.09,0.00,VWS V14.01,2013-05-02 04:21:00,
2013-05-01 22:26:00,15.5,11.8,30.85,NW,326,0.0,0.0,85,0.00,,---,0.09,0.00,VWS V14.01,2013-05-02 04:26:00,
2013-05-01 22:31:00,15.7,12.0,30.85,NW,317,0.0,0.0,85,0.00,,---,0.09,0.00,VWS V14.01,2013-05-02 04:31:00,
2013-05-01 22:36:00,16.1,12.1,30.86,NW,317,0.0,0.0,84,0.00,,---,0.09,0.00,VWS V14.01,2013-05-02 04:36:00,
2013-05-01 22:41:00,16.1,12.1,30.85,NW,317,0.0,0.0,84,0.00,,---,0.09,0.00,VWS V14.01,2013-05-02 04:41:00,
2013-05-01 22:46:00,16.1,12.1,30.85,NW,317,0.0,0.0,84,0.00,,---,0.09,0.00,VWS V14.01,2013-05-02 04:46:00,
2013-05-01 22:51:00,15.8,11.6,30.85,WNW,300,0.0,0.0,83,0.00,,---,0.09,0.00,VWS V14.01,2013-05-02 04:51:00,
2013-05-01 22:56:00,15.5,11.5,30.86,WNW,303,0.0,0.0,84,0.00,,---,0.09,0.00,VWS V14.01,2013-05-02 04:56:00,
2013-05-01 23:01:00,15.4,11.7,30.86,WNW,300,0.0,0.0,85,0.00,,---,0.09,0.00,VWS V14.01,2013-05-02 05:01:00,
2013-05-01 23:06:00,15.3,11.6,30.86,WNW,296,0.0,0.0,85,0.00,,---,0.09,0.00,VWS V14.01,2013-05-02 05:06:00,
2013-05-01 23:11:00,15.2,11.2,30.86,WNW,296,0.0,0.0,84,0.00,,---,0.09,0.00,VWS V14.01,2013-05-02 05:11:00,
2013-05-01 23:16:00,15.1,11.4,30.86,WNW,298,0.0,0.0,85,0.00,,---,0.09,0.00,VWS V14.01,2013-05-02 05:16:00,
2013-05-01 23:21:00,15.5,12.1,30.86,WNW,303,0.0,0.0,86,0.00,,---,0.09,0.00,VWS V14.01,2013-05-02 05:21:00,
2013-05-01 23:26:00,15.9,12.5,30.87,NW,304,0.0,0.0,86,0.00,,---,0.09,0.00,VWS V14.01,2013-05-02 05:26:00,
2013-05-01 23:31:00,16.2,12.5,30.87,NW,304,0.0,0.0,85,0.00,,---,0.09,0.00,VWS V14.01,2013-05-02 05:31:00,
2013-05-01 23:36:00,16.3,12.6,30.87,WNW,303,0.0,0.0,85,0.00,,---,0.09,0.00,VWS V14.01,2013-05-02 05:36:00,
2013-05-01 23:41:00,16.4,12.4,30.87,NW,306,0.0,0.0,84,0.00,,---,0.09,0.00,VWS V14.01,2013-05-02 05:41:00,
2013-05-01 23:46:00,16.4,12.4,30.87,WNW,297,0.0,0.0,84,0.00,,---,0.09,0.00,VWS V14.01,2013-05-02 05:46:00,
2013-05-01 23:51:00,16.2,12.0,30.87,WNW,293,0.0,0.0,83,0.00,,---,0.09,0.00,VWS V14.01,2013-05-02 05:51:00,
2013-05-01 23:56:00,16.3,12.3,30.87,WNW,291,0.0,0.0,84,0.00,,---,0.09,0.00,VWS V14.01,2013-05-02 05:56:00,